[[{"header":{"parameterUnit":"m.s-1","parameterCategory":1,"la1":30.2991,"la2":30.254,"lo1":-89.0895,"lo2":-89.0444,"dy":0.0017,"dx":0.0017,"nx":28,"ny":28,"refTime":"2024-04-29T09:00:00:Z","depth":0,"parameterNumber":2,"parameterNumberName":"U-component_of_WINDS"},"data":[0,0,0,0,0,0,0,0,0,0,0,0,0,0,0,0,0,0,0,0,0,0,0,0,0,0,0,0,0,0,0,0,0,0,0,0,0,0,0,0,0,0,0,0,0,0,0,0,0,0,0,0,0,0,0,0,0,0,2.8361,2.8362,0,2.8501,2.8503,2.8504,2.8599,2.86,2.8601,2.8601,2.8745,2.8748,2.8751,0,0,0,0,0,0,0,0,0,0,0,0,0,2.8178,2.8181,2.8361,2.8363,2.8364,2.8501,2.8503,2.8505,2.8599,2.86,2.8601,2.8602,2.8744,2.8748,2.8751,0,0,0,0,0,0,0,0,0,0,0,0,0,2.8282,2.8182,2.8361,2.8428,2.8435,2.85,2.8503,2.8505,2.8599,2.86,2.8601,2.8602,2.8743,2.8747,2.8752,2.8761,0,0,2.8767,2.8769,0,0,0,0,0,0,0,0,2.8276,2.8288,2.8416,2.8423,2.8432,2.8534,2.8491,2.8591,2.8599,2.8537,2.8601,2.8603,2.8674,2.8684,2.8708,2.8768,2.8774,2.8767,2.877,2.8772,2.8773,0,0,0,0,0,0,0,2.8268,2.8283,2.8416,2.8418,2.8428,2.8452,2.8468,2.851,2.8598,2.8542,2.855,2.8565,2.8678,2.8703,2.8712,2.8776,2.8767,2.8771,2.8774,2.8776,2.8854,2.8853,0,0,0,0,0,0,2.825,2.8276,2.8412,2.8421,2.8355,2.8455,2.8473,2.85,2.8598,2.8614,2.8564,2.8569,2.8695,2.8707,2.8718,2.8738,2.8772,2.8776,2.8779,2.8855,2.8854,2.8853,0,0,0,0,0,0,2.8246,2.8262,2.8406,2.8351,2.8371,2.8457,2.8487,2.8502,2.8528,2.8614,2.863,2.8573,2.8696,2.8711,2.8751,2.8744,2.8778,2.8783,2.8856,2.8854,2.8853,2.8775,0,0,0,0,0,0,2.824,2.8259,2.8263,2.835,2.8373,2.8435,2.8487,2.8504,2.8536,2.8543,2.8627,2.8642,2.8698,2.8743,2.8755,2.8751,2.8787,2.8857,2.8855,2.8854,2.8778,2.8771,2.8765,0,0,0,0,0,2.8234,2.8234,2.8262,2.8278,2.8379,2.8435,2.8448,2.8513,2.8535,2.854,2.8596,2.8639,2.8742,2.8746,2.8761,2.8758,2.8857,2.8856,2.8854,2.8782,2.8773,2.8765,0,0,0,0,0,0,2.8143,2.8247,2.8279,2.8308,2.8362,2.8451,2.8459,2.8501,2.8549,2.8555,2.8633,2.8651,2.8683,2.8724,2.8727,2.8774,2.8805,2.8806,2.8745,2.8738,2.8731,2.8721,2.879,0,0,0,0,0,2.8127,2.8163,2.8251,2.8268,2.8294,2.8371,2.8398,2.8443,2.8502,2.8525,2.8584,2.864,2.8686,2.8714,2.876,2.8785,2.8806,2.8791,2.8784,2.8778,2.8778,2.8798,2.8793,2.8847,2.8847,2.8847,0,0,2.8093,2.8154,2.8172,2.8252,2.8299,2.8336,2.839,2.8425,2.8454,2.8531,2.8572,2.8618,2.8686,2.8719,2.8736,2.8754,2.8768,2.8776,2.877,2.8774,2.8795,2.879,2.8785,2.8846,2.8846,2.8846,0,0,2.805,2.8099,2.812,2.8167,2.8238,2.829,2.8295,2.8379,2.8412,2.8455,2.8515,2.855,2.8626,2.8673,2.8707,2.8686,2.8729,2.8699,2.8663,2.8681,2.8677,2.8674,2.8669,2.8666,2.8698,2.8698,2.8698,0,2.7999,2.8056,2.8125,2.8159,2.8194,2.8266,2.8289,2.8331,2.8414,2.8437,2.8456,2.8555,2.8605,2.8652,2.8647,2.8671,2.8681,2.8689,2.8672,2.8669,2.8667,2.8663,2.8661,2.8694,2.8695,2.8695,2.8695,0,2.7991,2.803,2.8039,2.8118,2.8154,2.8181,2.8256,2.8284,2.8327,2.8378,2.8423,2.8486,2.8548,2.8563,2.8604,2.8616,2.8626,2.8657,2.8691,2.8657,2.8655,2.8654,2.8688,2.869,2.8691,2.8692,0,0,2.7894,2.8013,2.8015,2.8054,2.8139,2.8171,2.8204,2.8265,2.8289,2.8344,2.8375,2.8439,2.847,2.8508,2.8556,2.8572,2.8555,2.8603,2.8605,2.8593,2.8575,2.8552,2.8548,2.8584,2.8584,2.8584,2.857,0,2.7866,2.7927,2.7992,2.8032,2.807,2.8141,2.817,2.8226,2.8275,2.8316,2.837,2.8415,2.8452,2.8476,2.8494,2.8552,2.8552,2.8554,2.8614,2.8616,2.8596,2.8547,2.8522,2.8506,2.8569,2.8569,2.8569,0,2.784,2.7894,2.7937,2.8022,2.8041,2.8065,2.8129,2.8166,2.8233,2.8268,2.8312,2.8364,2.8403,2.8432,2.8489,2.8489,2.8518,2.8551,2.8552,2.8561,2.8591,2.8556,2.8502,2.85,2.8568,2.8568,2.8568,0,2.7768,2.785,2.7888,2.7918,2.8018,2.8034,2.8076,2.8144,2.8178,2.8234,2.8257,2.8316,2.8349,2.8394,2.8461,2.8475,2.8512,2.8546,2.8544,2.8542,2.8548,2.8547,2.8499,2.8564,2.8564,2.8564,2.8564,0,2.773,2.7754,2.7857,2.788,2.7911,2.7986,2.8014,2.8063,2.8123,2.8158,2.8223,2.8255,2.8341,2.8384,2.8436,2.8477,2.8491,2.8522,2.8535,2.8517,2.8513,2.8537,2.854,2.8564,2.8564,2.8564,2.8564,0,2.7654,2.7724,2.777,2.7861,2.7885,2.7903,2.7983,2.8009,2.8062,2.8106,2.8121,2.8205,2.8259,2.8331,2.8406,2.8442,2.8477,2.8498,2.8455,2.8463,2.8458,2.8458,2.8425,2.8425,2.8487,2.8487,2.8486,0,2.7626,2.7647,2.7741,2.7769,2.781,2.7854,2.789,2.7966,2.8001,2.808,2.8097,2.8156,2.8208,2.8291,2.8359,2.8419,2.8442,2.8427,2.8452,2.8433,2.8445,2.8443,2.8447,2.8421,2.842,2.8419,2.8418,0,2.7569,2.7604,2.7652,2.7714,2.7755,2.7807,2.7862,2.7882,2.7969,2.8005,2.8062,2.8102,2.8181,2.8239,2.8308,2.8353,2.8401,2.841,2.8413,2.8394,2.8369,2.8385,2.8439,2.841,2.8411,2.8412,2.8412,2.8412,2.7518,2.7541,2.7612,2.7665,2.7715,2.7765,2.7796,2.7854,2.7902,2.7973,2.8015,2.807,2.814,2.8237,2.8281,2.8326,2.8344,2.8348,2.8349,2.8349,2.8344,2.8361,2.8339,2.8339,2.8339,2.8339,2.834,0,2.7467,2.7516,2.7564,2.764,2.7683,2.7724,2.7789,2.7822,2.7869,2.793,2.798,2.8047,2.8105,2.8179,2.8243,2.8265,2.8289,2.8279,2.8279,2.8289,2.8323,2.8315,2.8259,2.8259,2.8259,2.8259,2.8259,2.8259,2.7445,2.7487,2.753,2.7598,2.7649,2.7704,2.7737,2.7785,2.7835,2.7906,2.7955,2.8003,2.807,2.814,2.8196,2.8216,2.8238,2.8222,2.8249,2.8279,2.8286,2.8293,2.8286,2.8225,2.8225,2.8212,2.8212,2.8212]},{"header":{"parameterUnit":"m.s-1","parameterCategory":1,"la1":30.2991,"la2":30.254,"lo1":-89.0895,"lo2":-89.0444,"dy":0.0017,"dx":0.0017,"nx":28,"ny":28,"refTime":"2024-04-29T09:00:00:Z","depth":0,"parameterNumber":3,"parameterNumberName":"V-component_of_WINDS"},"data":[0,0,0,0,0,0,0,0,0,0,0,0,0,0,0,0,0,0,0,0,0,0,0,0,0,0,0,0,0,0,0,0,0,0,0,0,0,0,0,0,0,0,0,0,0,0,0,0,0,0,0,0,0,0,0,0,0,0,0.0719,0.0719,0,0.068,0.068,0.068,0.0698,0.0699,0.07,0.07,0.066,0.0658,0.0656,0,0,0,0,0,0,0,0,0,0,0,0,0,0.0805,0.0803,0.0719,0.0719,0.0718,0.0681,0.068,0.0679,0.0697,0.0699,0.07,0.0701,0.0661,0.0659,0.0656,0,0,0,0,0,0,0,0,0,0,0,0,0,0.0767,0.0803,0.0719,0.0723,0.0723,0.0681,0.068,0.0679,0.0697,0.0699,0.07,0.0701,0.0662,0.0659,0.0656,0.0608,0,0,0.0647,0.0646,0,0,0,0,0,0,0,0,0.0769,0.0764,0.0723,0.0722,0.0722,0.0695,0.0696,0.0655,0.0697,0.0707,0.0701,0.0702,0.0671,0.0667,0.0657,0.0606,0.0605,0.0647,0.0645,0.0644,0.0643,0,0,0,0,0,0,0,0.0772,0.0766,0.0704,0.0722,0.0722,0.0725,0.0721,0.0688,0.0681,0.0706,0.0707,0.0702,0.0671,0.0659,0.0656,0.0604,0.0647,0.0644,0.0642,0.0641,0.0509,0.0508,0,0,0,0,0,0,0.0775,0.0768,0.0705,0.0703,0.075,0.0722,0.0718,0.0702,0.0681,0.068,0.0701,0.0703,0.0664,0.0659,0.0654,0.0596,0.0644,0.0641,0.0639,0.0511,0.0509,0.0507,0,0,0,0,0,0,0.0777,0.0769,0.0707,0.0735,0.0728,0.0719,0.0702,0.0701,0.069,0.0678,0.0676,0.0691,0.0665,0.0659,0.0619,0.0595,0.0639,0.0637,0.0513,0.051,0.0508,0.0479,0,0,0,0,0,0,0.0779,0.077,0.0752,0.0735,0.0726,0.0673,0.07,0.0699,0.0684,0.0687,0.0668,0.0666,0.0665,0.0623,0.0616,0.0591,0.0634,0.0515,0.0512,0.0509,0.0482,0.0476,0.047,0,0,0,0,0,0.0782,0.0746,0.0752,0.0744,0.0705,0.0671,0.0666,0.0666,0.0683,0.0664,0.0656,0.0667,0.0598,0.0619,0.0611,0.0585,0.0517,0.0513,0.0509,0.0485,0.0477,0.047,0,0,0,0,0,0,0.0762,0.0744,0.075,0.0708,0.0691,0.0675,0.0652,0.0659,0.0637,0.064,0.0641,0.0636,0.0594,0.0586,0.0609,0.0536,0.056,0.0554,0.0544,0.0537,0.0531,0.0534,0.0632,0,0,0,0,0,0.0752,0.0727,0.0713,0.0677,0.0668,0.0661,0.0647,0.0648,0.063,0.0623,0.0613,0.0595,0.0569,0.0552,0.0528,0.048,0.0475,0.0458,0.0452,0.0447,0.0443,0.0415,0.0407,0.0495,0.0495,0.0495,0,0,0.0733,0.072,0.0704,0.0672,0.066,0.0632,0.0655,0.0626,0.0606,0.0619,0.0581,0.0571,0.0551,0.0507,0.0487,0.0498,0.0417,0.0442,0.0439,0.0437,0.041,0.0402,0.0394,0.0492,0.0492,0.0493,0,0,0.0683,0.0672,0.064,0.0625,0.0605,0.06,0.0592,0.0574,0.0568,0.0529,0.0538,0.0513,0.0469,0.0454,0.044,0.038,0.0389,0.0372,0.0342,0.0314,0.0308,0.0301,0.0279,0.0271,0.0367,0.0367,0.0367,0,0.0662,0.0622,0.0622,0.0592,0.0576,0.0586,0.0552,0.0538,0.0511,0.05,0.0512,0.0455,0.0443,0.0394,0.0379,0.0368,0.0358,0.0375,0.0309,0.0302,0.0297,0.0276,0.0267,0.0365,0.0366,0.0366,0.0366,0,0.0596,0.0568,0.0544,0.0517,0.0499,0.0467,0.046,0.0442,0.0443,0.0436,0.0395,0.0379,0.0351,0.0339,0.0341,0.0289,0.0297,0.0309,0.0333,0.0286,0.0267,0.0259,0.0363,0.0363,0.0364,0.0364,0,0,0.0536,0.0506,0.0498,0.0484,0.0461,0.0438,0.0405,0.0377,0.0361,0.034,0.0312,0.0272,0.0283,0.0267,0.0267,0.0242,0.0194,0.0257,0.0257,0.0246,0.0135,0.0126,0.0117,0.0199,0.0197,0.0196,0.0137,0,0.0484,0.0428,0.0425,0.0373,0.0346,0.0352,0.0323,0.0305,0.0296,0.0271,0.0262,0.0233,0.025,0.024,0.0216,0.0205,0.0172,0.0209,0.0172,0.0171,0.0178,0.0107,0.0099,0.0043,0.0129,0.0128,0.0127,0,0.0418,0.0395,0.034,0.0318,0.0306,0.0281,0.0253,0.0229,0.0207,0.0202,0.0183,0.0185,0.0149,0.0173,0.0123,0.0149,0.0132,0.0124,0.0122,0.012,0.0147,0.0103,0.0026,0.0018,0.0114,0.0115,0.0116,0,0.0379,0.0334,0.0295,0.0283,0.0256,0.0237,0.0225,0.0205,0.0187,0.0162,0.015,0.0121,0.0106,0.0083,0.0076,0.0094,0.0026,0.005,0.0021,0.0021,0.0008,0.0009,-0.0072,-0.0004,-0.0004,-0.0004,-0.0003,0,0.0323,0.0289,0.0276,0.0253,0.0214,0.0209,0.0171,0.0159,0.014,0.0113,0.0116,0.009,0.0083,0.0055,0.0049,0.0008,0.0001,-0.0004,-0.0005,-0.0004,-0.0004,-0.0014,-0.001,-0.0006,-0.0005,-0.0005,-0.0005,0,0.0274,0.0264,0.0222,0.0199,0.0192,0.0164,0.0144,0.012,0.011,0.0076,0.0067,0.0053,0.002,0.001,-0.0029,-0.0033,-0.0081,-0.0079,-0.0074,-0.0074,-0.0102,-0.0099,-0.0192,-0.0205,-0.0128,-0.0129,-0.013,0,0.0239,0.0213,0.0186,0.0168,0.0155,0.0126,0.0107,0.01,0.008,0.0051,0.003,-0.0003,-0.0029,-0.0082,-0.0097,-0.0127,-0.0125,-0.0156,-0.013,-0.0129,-0.0126,-0.0124,-0.0127,-0.016,-0.0161,-0.0162,-0.0162,0,0.0178,0.0173,0.0147,0.0117,0.0095,0.0071,0.0049,0.0033,0.0023,-0.0,-0.0034,-0.0055,-0.0096,-0.0129,-0.0161,-0.0174,-0.0171,-0.0171,-0.0179,-0.0178,-0.0174,-0.0177,-0.0087,-0.0168,-0.0168,-0.0167,-0.0167,-0.0167,0.0135,0.0111,0.0088,0.0057,0.0039,0.0017,-0.0007,-0.0021,-0.0049,-0.0083,-0.0086,-0.0123,-0.0148,-0.019,-0.0206,-0.0236,-0.0227,-0.0239,-0.0242,-0.0245,-0.0247,-0.017,-0.0242,-0.0242,-0.0242,-0.0242,-0.0242,0,0.0073,0.0058,0.003,-0.0003,-0.0028,-0.0023,-0.0049,-0.007,-0.0103,-0.0126,-0.0153,-0.0193,-0.0226,-0.0245,-0.0278,-0.0298,-0.0298,-0.0307,-0.0305,-0.0308,-0.0253,-0.0243,-0.0307,-0.0307,-0.0307,-0.0307,-0.0307,-0.0307,0.0039,-0.0002,-0.0009,-0.006,-0.0075,-0.0111,-0.0127,-0.0148,-0.0167,-0.0212,-0.0239,-0.0252,-0.0274,-0.0309,-0.034,-0.0345,-0.0357,-0.0367,-0.0371,-0.0319,-0.0312,-0.0305,-0.0296,-0.037,-0.037,-0.0423,-0.0424,-0.0424]}]]